Date String (YYYY-MM-DD hh:mm:ss) UTC,Instrument flags,Ambient pressure (hPa),Sample flow (lpm),Bypass flow (lpm),Sample temperature (°C),Ambient temperature (°C),ASC tube jacket temperature (°C),LED temperature (°C),Box temperature (°C),Sample RH (%),Span deviation,Mass concentration (μg/m³),Mass concentration (μg/m³),Mass concentration (μg/m³)
DateTimeUTC,F1_M11,P_M11,Q1_M11,Q2_M11,T1_M11,T2_M11,T3_M11,T4_M11,T5_M11,U1_M11,ZSPAN_M11,X2_M11,X0_M11,X1_M11
2022-03-22 06:00:00,,0827.7,5.01,0.00,22.5,21.9,00.0,31.3,24.3,09.9,0000.0,0002.36,0007.60,0001.58
2022-03-22 06:01:00,,0827.7,5.00,0.00,22.4,21.8,00.0,31.3,24.2,09.8,0000.0,0002.37,0007.58,0001.59
2022-03-22 06:02:00,,0827.7,5.00,0.00,22.4,21.8,00.0,31.4,24.3,09.9,0000.0,0002.29,0007.65,0001.59
2022-03-22 06:03:00,,0827.7,5.00,0.00,22.4,21.7,00.0,31.4,24.2,09.9,0000.0,0002.27,0007.48,0001.58
2022-03-22 06:04:00,,0827.7,4.98,0.00,22.4,21.7,00.0,31.4,24.2,10.0,0000.0,0002.30,0007.46,0001.58
2022-03-22 06:05:00,,0827.7,5.00,0.00,22.4,21.7,00.0,31.4,24.2,10.0,0000.0,0002.36,0007.56,0001.56
2022-03-22 06:06:00,,0827.7,5.00,0.00,22.4,21.6,00.0,31.4,24.2,09.9,0000.0,0002.33,0007.44,0001.56
2022-03-22 06:07:00,,0827.7,5.00,0.00,22.4,21.6,00.0,31.4,24.1,09.8,0000.0,0002.26,0006.88,0001.55
2022-03-22 06:08:00,,0827.7,5.00,0.00,22.4,21.5,00.0,31.4,24.1,09.9,0000.0,0002.19,0005.82,0001.53
2022-03-22 06:09:00,,0827.7,5.00,0.00,22.4,21.5,00.0,31.4,24.1,10.0,0000.0,0002.16,0005.60,0001.52
2022-03-22 06:10:00,,0827.6,5.00,0.00,22.4,21.5,00.0,31.3,24.1,10.1,0000.0,0002.22,0004.84,0001.53
2022-03-22 06:11:00,,0827.7,5.00,0.00,22.4,21.5,00.0,31.3,24.1,09.9,0000.0,0002.25,0004.74,0001.53
2022-03-22 06:12:00,,0827.6,5.00,0.00,22.3,21.5,00.0,31.3,24.1,09.9,0000.0,0002.26,0004.73,0001.52
2022-03-22 06:13:00,,0827.6,4.99,0.00,22.3,21.5,00.0,31.3,24.1,10.1,0000.0,0002.25,0005.07,0001.52
2022-03-22 06:14:00,,0827.6,5.00,0.00,22.3,21.5,00.0,31.3,24.1,10.1,0000.0,0002.23,0006.03,0001.52
2022-03-22 06:15:00,,0827.6,5.01,0.00,22.3,21.4,00.0,31.3,24.1,10.2,0000.0,0002.23,0006.28,0001.52
2022-03-22 06:16:00,,0827.6,5.00,0.00,22.3,21.4,00.0,31.3,24.1,10.0,0000.0,0002.21,0006.21,0001.53
2022-03-22 06:17:00,,0827.6,5.01,0.00,22.3,21.4,00.0,31.3,24.1,10.1,0000.0,0002.27,0006.42,0001.54
2022-03-22 06:18:00,,0827.6,5.01,0.00,22.3,21.4,00.0,31.3,24.0,10.0,0000.0,0002.31,0006.62,0001.54
2022-03-22 06:19:00,,0827.5,5.00,0.00,22.3,21.4,00.0,31.3,24.0,10.0,0000.0,0002.35,0006.68,0001.55
2022-03-22 06:20:00,,0827.5,4.99,0.00,22.3,21.4,00.0,31.3,24.0,10.0,0000.0,0002.38,0006.53,0001.56
2022-03-22 06:21:00,,0827.6,5.00,0.00,22.3,21.4,00.0,31.3,24.0,10.0,0000.0,0002.35,0006.08,0001.57
2022-03-22 06:22:00,,0827.5,5.00,0.00,22.3,21.3,00.0,31.3,24.0,10.0,0000.0,0002.34,0006.04,0001.58
2022-03-22 06:23:00,,0827.5,5.00,0.00,22.2,21.3,00.0,31.3,24.0,09.9,0000.0,0002.34,0006.02,0001.58
2022-03-22 06:24:00,,0827.5,5.00,0.00,22.2,21.3,00.0,31.3,24.0,10.0,0000.0,0002.37,0005.48,0001.59
2022-03-22 06:25:00,,0827.6,5.00,0.00,22.2,21.3,00.0,31.3,24.0,10.0,0000.0,0002.41,0004.65,0001.59
2022-03-22 06:26:00,,0827.5,5.00,0.00,22.2,21.3,00.0,31.3,24.0,10.0,0000.0,0002.46,0004.77,0001.59
2022-03-22 06:27:00,,0827.4,4.98,0.00,22.3,21.8,00.0,31.3,24.1,09.9,0000.0,0002.46,0004.80,0001.57
2022-03-22 06:28:00,,0827.4,5.02,0.00,22.3,22.6,00.0,31.3,24.2,09.8,0000.0,0002.39,0004.58,0001.57
2022-03-22 06:29:00,,0827.5,5.00,0.00,22.5,23.1,00.0,31.3,24.4,09.8,0000.0,0002.41,0004.53,0001.58
2022-03-22 06:30:00,,0827.5,5.00,0.00,22.5,23.0,00.0,31.3,24.4,09.8,0000.0,0002.44,0004.63,0001.58
2022-03-22 06:31:00,,0827.5,4.99,0.00,22.5,22.7,00.0,31.3,24.4,09.8,0000.0,0002.38,0004.53,0001.58
2022-03-22 06:32:00,,0827.4,4.99,0.00,22.5,22.5,00.0,31.4,24.3,09.8,0000.0,0002.33,0004.39,0001.57
2022-03-22 06:33:00,,0827.4,5.00,0.00,22.5,22.3,00.0,31.4,24.3,09.7,0000.0,0002.31,0004.37,0001.56
2022-03-22 06:34:00,,0827.4,5.01,0.00,22.5,22.1,00.0,31.4,24.2,09.7,0000.0,0002.31,0004.38,0001.57
2022-03-22 06:35:00,,0827.4,5.01,0.00,22.4,22.0,00.0,31.4,24.2,09.7,0000.0,0002.30,0004.31,0001.57
2022-03-22 06:36:00,,0827.4,4.98,0.00,22.4,21.9,00.0,31.4,24.1,09.7,0000.0,0002.31,0004.18,0001.57
2022-03-22 06:37:00,,0827.4,5.01,0.00,22.4,21.8,00.0,31.4,24.1,09.8,0000.0,0002.23,0003.70,0001.56
2022-03-22 06:38:00,,0827.4,5.01,0.00,22.4,21.7,00.0,31.4,24.1,09.8,0000.0,0002.22,0003.59,0001.56
2022-03-22 06:39:00,,0827.4,4.99,0.00,22.3,21.6,00.0,31.4,24.1,09.8,0000.0,0002.21,0003.58,0001.56
2022-03-22 06:40:00,,0827.4,5.00,0.00,22.3,21.5,00.0,31.4,24.0,09.9,0000.0,0002.20,0003.52,0001.57
2022-03-22 06:41:00,,0827.4,4.99,0.00,22.3,21.5,00.0,31.3,24.0,09.9,0000.0,0002.20,0003.48,0001.57
2022-03-22 06:42:00,,0827.4,5.00,0.00,22.3,21.5,00.0,31.3,24.0,09.9,0000.0,0002.23,0003.55,0001.57
2022-03-22 06:43:00,,0827.4,5.00,0.00,22.3,21.4,00.0,31.3,24.0,09.9,0000.0,0002.26,0003.84,0001.58
2022-03-22 06:44:00,,0827.3,5.00,0.00,22.2,21.4,00.0,31.3,24.0,09.9,0000.0,0002.25,0003.89,0001.58
2022-03-22 06:45:00,,0827.4,4.99,0.00,22.2,21.3,00.0,31.3,23.9,09.9,0000.0,0002.24,0003.87,0001.58
2022-03-22 06:46:00,,0827.4,5.01,0.00,22.2,21.3,00.0,31.3,23.9,10.0,0000.0,0002.23,0003.85,0001.56
2022-03-22 06:47:00,,0827.3,5.00,0.00,22.2,21.3,00.0,31.3,23.9,10.0,0000.0,0002.17,0003.69,0001.55
2022-03-22 06:48:00,,0827.3,5.00,0.00,22.2,21.3,00.0,31.3,23.9,09.9,0000.0,0002.16,0003.63,0001.56
2022-03-22 06:49:00,,0827.4,5.00,0.00,22.2,21.3,00.0,31.2,23.9,10.0,0000.0,0002.14,0003.64,0001.55
2022-03-22 06:50:00,,0827.3,5.00,0.00,22.1,21.2,00.0,31.2,23.9,10.0,0000.0,0002.13,0003.61,0001.56
2022-03-22 06:51:00,,0827.2,5.00,0.00,22.1,21.2,00.0,31.2,23.8,09.9,0000.0,0002.08,0004.30,0001.54
2022-03-22 06:52:00,,0827.3,5.00,0.00,22.1,21.2,00.0,31.2,23.8,09.9,0000.0,0002.00,0004.73,0001.52
2022-03-22 06:53:00,,0827.2,4.99,0.00,22.1,21.2,00.0,31.2,23.8,09.9,0000.0,0001.95,0004.67,0001.51
2022-03-22 06:54:00,,0827.4,5.00,0.00,22.1,21.2,00.0,31.2,23.8,09.9,0000.0,0001.93,0004.39,0001.50
2022-03-22 06:55:00,,0827.6,4.99,0.00,22.1,21.1,00.0,31.2,23.8,10.0,0000.0,0001.90,0004.24,0001.50
2022-03-22 06:56:00,,0827.7,5.00,0.00,22.0,21.1,00.0,31.1,23.8,09.9,0000.0,0001.88,0004.19,0001.49
2022-03-22 06:57:00,,0827.7,5.01,0.00,22.0,21.1,00.0,31.1,23.7,09.9,0000.0,0001.87,0004.21,0001.49
2022-03-22 06:58:00,,0827.5,5.01,0.00,22.0,21.3,00.0,31.1,23.8,09.9,0000.0,0001.88,0004.25,0001.50
2022-03-22 06:59:00,,0827.5,5.00,0.00,22.1,22.1,00.0,31.1,24.0,09.8,0000.0,0001.88,0004.25,0001.50
